Location: Boca do Mato
(22.9085°S, 43.2930°W)
Time: 21:48:29
(UTC+00:00)

Cosmos 1025 Rocket - Pass Details

Date: 14 July 2020
Orbit: 593 x 619 km, 82.5° (Epoch: 10 August)

Event Time Altitude Azimuth Distance (km) Brightness Sun altitude
Rises 07:51:45 0° 355° (N) 2,820 6.6 -23.0°
Reaches altitude 10° 07:53:56 10° 355° (N) 1,924 5.7 -22.6°
Maximum altitude 07:58:11 86° 268° (W) 603 2.8 -21.6°
Drops below altitude 10° 08:02:30 10° 176° (S) 1,945 5.5 -20.7°
Sets 08:04:43 0° 175° (S) 2,854 6.4 -20.2°
